TimeEDT,TemperatureF,Dew PointF,Humidity,Sea Level PressureIn,VisibilityMPH,Wind Direction,Wind SpeedMPH,Gust SpeedMPH,PrecipitationIn,Events,Conditions,WindDirDegrees,DateUTC
12:53 AM,61.0,59.0,93,30.02,10.0,WSW,4.6,-,N/A,,Clear,250,2012-11-02 04:53:00
1:53 AM,61.0,59.0,93,30.01,10.0,WSW,4.6,-,N/A,,Clear,250,2012-11-02 05:53:00
2:53 AM,59.0,57.9,96,30.02,10.0,WSW,3.5,-,N/A,,Clear,250,2012-11-02 06:53:00
3:53 AM,57.9,57.0,97,30.03,10.0,West,4.6,-,N/A,,Clear,260,2012-11-02 07:53:00
4:53 AM,57.9,57.9,100,30.02,7.0,WNW,6.9,-,N/A,,Clear,300,2012-11-02 08:53:00
5:53 AM,57.0,57.0,100,30.04,8.0,WNW,5.8,-,N/A,,Clear,290,2012-11-02 09:53:00
6:53 AM,55.0,55.0,100,30.06,10.0,WNW,4.6,-,N/A,,Clear,300,2012-11-02 10:53:00
7:53 AM,53.1,53.1,100,30.06,7.0,NW,4.6,-,N/A,,Clear,310,2012-11-02 11:53:00
8:53 AM,59.0,55.0,87,30.08,10.0,NNW,8.1,-,N/A,,Clear,330,2012-11-02 12:53:00
9:53 AM,64.9,55.0,70,30.09,10.0,NNW,6.9,-,N/A,,Clear,340,2012-11-02 13:53:00
10:53 AM,70.0,50.0,49,30.10,10.0,Variable,4.6,-,N/A,,Clear,0,2012-11-02 14:53:00
11:53 AM,73.9,45.0,35,30.10,10.0,Variable,4.6,-,N/A,,Clear,0,2012-11-02 15:53:00
12:53 PM,73.9,46.0,37,30.08,10.0,NE,8.1,-,N/A,,Clear,40,2012-11-02 16:53:00
1:53 PM,73.9,46.0,37,30.05,10.0,NE,10.4,-,N/A,,Clear,50,2012-11-02 17:53:00
2:53 PM,73.9,46.9,38,30.03,10.0,NE,9.2,-,N/A,,Clear,50,2012-11-02 18:53:00
3:53 PM,73.9,48.0,40,30.03,10.0,ENE,6.9,-,N/A,,Clear,60,2012-11-02 19:53:00
4:53 PM,73.0,48.0,41,30.04,10.0,ENE,4.6,-,N/A,,Clear,60,2012-11-02 20:53:00
5:53 PM,71.1,48.9,45,30.04,10.0,East,4.6,-,N/A,,Clear,80,2012-11-02 21:53:00
6:53 PM,63.0,52.0,67,30.04,10.0,Calm,Calm,-,N/A,,Clear,0,2012-11-02 22:53:00
7:53 PM,60.1,52.0,75,30.05,10.0,Calm,Calm,-,N/A,,Clear,0,2012-11-02 23:53:00
8:53 PM,57.9,52.0,81,30.06,10.0,Calm,Calm,-,N/A,,Clear,0,2012-11-03 00:53:00
9:53 PM,55.9,51.1,84,30.08,10.0,Calm,Calm,-,N/A,,Clear,0,2012-11-03 01:53:00
10:53 PM,57.0,52.0,83,30.07,10.0,Calm,Calm,-,N/A,,Clear,0,2012-11-03 02:53:00
11:53 PM,57.9,53.1,84,30.08,10.0,WSW,4.6,-,N/A,,Clear,240,2012-11-03 03:53:00